Waarnemingen

Advertentie
Mijn weer
Helgoland, Duitsland (10015): temperatuur & dauwpunt: 08.12.2018 11:00:00 - 14.12.2018 11:00:00 (CET)Helgoland, Duitsland (10015): temperatuur 5cm: 08.12.2018 11:00:00 - 14.12.2018 11:00:00 (CET)Helgoland, Duitsland (10015): luchtdruk: 08.12.2018 11:00:00 - 14.12.2018 11:00:00 (CET)Helgoland, Duitsland (10015): zicht: 08.12.2018 11:00:00 - 14.12.2018 11:00:00 (CET)Helgoland, Duitsland (10015): Zonneschijnduur: 08.12.2018 11:00:00 - 14.12.2018 11:00:00 (CET)Helgoland, Duitsland (10015): neerslag: 08.12.2018 11:00:00 - 14.12.2018 11:00:00 (CET)
Datum & Tijd tt [°C] td [°C] tt 5cm [°C] ppp [hPa] vv [km] sd [min] rr [mm]
14.12.2018 11:00:00 3,5 0,0 3,5 1027,1 38 0 0,0
14.12.2018 10:00:00 3,8 0,1 3,4 1026,7 28 0 0,0
14.12.2018 09:00:00 4,0 0,8 3,4 1026,3 40 0 0,0
14.12.2018 08:00:00 3,4 0,4 2,9 1025,9 37 0 0,0
14.12.2018 07:00:00 3,8 0,9 3,3 1025,6 37 0 0,0
14.12.2018 06:00:00 3,7 0,3 3,0 1025,6 48 0 0,0
14.12.2018 05:00:00 3,8 0,5 3,1 1025,7 40 0 0,0
14.12.2018 04:00:00 3,8 0,6 3,0 1025,9 40 0 0,0
14.12.2018 03:00:00 3,4 0,9 2,7 1026,1 26 0 0,0
14.12.2018 02:00:00 3,4 0,9 3,1 1025,9 37 0 0,0
14.12.2018 01:00:00 3,5 1,0 3,2 1026,0 37 0 0,0
14.12.2018 00:00:00 3,8 0,8 3,5 1025,9 50 0 0,0
13.12.2018 23:00:00 4,0 0,9 3,6 1025,7 44 0 0,0
13.12.2018 22:00:00 3,7 1,1 3,3 1025,6 44 0 0,0
13.12.2018 21:00:00 3,9 1,2 3,4 1025,2 45 0 0,0
13.12.2018 20:00:00 4,2 1,9 3,7 1025,1 37 0 0,0
13.12.2018 19:00:00 4,2 1,8 3,7 1024,9 44 0 0,0
13.12.2018 18:00:00 4,0 1,7 3,7 1024,9 56 0 0,0
13.12.2018 17:00:00 3,7 1,1 3,3 1025,1 51 0 0,0
13.12.2018 16:00:00 3,5 0,5 3,0 1025,2 61 28 0,0
13.12.2018 15:00:00 3,1 -0,5 1,7 1025,5 67 17 0,0
13.12.2018 14:00:00 2,9 -0,6 2,6 1025,7 51 0 0,0
13.12.2018 13:00:00 3,0 -0,1 3,0 1026,2 45 0 0,0
13.12.2018 12:00:00 2,8 -0,6 3,0 1026,5 36 0 0,0
13.12.2018 11:00:00 2,8 -0,5 2,7 1026,7 - 0 0,0
13.12.2018 10:00:00 3,0 -0,7 2,9 1026,8 - 0 0,0
13.12.2018 09:00:00 3,2 -0,9 2,9 1026,6 - 0 0,0
13.12.2018 08:00:00 3,5 -0,4 3,2 1026,5 - 0 0,0
13.12.2018 07:00:00 4,0 -0,4 3,7 1026,4 - 0 0,0
13.12.2018 06:00:00 4,1 0,8 3,7 1026,6 - 0 0,0
13.12.2018 05:00:00 4,5 1,0 3,7 1026,9 - 0 0,0
13.12.2018 04:00:00 4,5 2,0 4,2 1027,2 - 0 0,0
13.12.2018 03:00:00 4,8 1,8 4,5 1027,5 - 0 0,0
13.12.2018 02:00:00 4,7 2,0 4,4 1027,5 - 0 0,0
13.12.2018 01:00:00 4,5 1,9 4,3 1027,8 - 0 0,0
13.12.2018 00:00:00 4,9 1,7 4,6 1027,8 - 0 0,0
12.12.2018 23:00:00 4,8 1,2 4,2 1028,0 - 0 0,0
12.12.2018 22:00:00 4,4 0,9 2,8 1028,4 - 0 0,0
12.12.2018 21:00:00 4,7 0,2 3,7 1028,5 - 0 0,0
12.12.2018 20:00:00 4,4 0,4 4,1 1028,3 - 0 0,0
12.12.2018 19:00:00 4,5 -0,5 3,4 1028,2 - 0 0,0
12.12.2018 18:00:00 4,7 0,1 3,2 1027,9 - 0 -
12.12.2018 17:00:00 - - - - - - -
12.12.2018 16:00:00 - - - - - - -
12.12.2018 15:00:00 - - - - - - -
12.12.2018 14:00:00 - - - - - - -
12.12.2018 13:00:00 - - - - - - -
12.12.2018 12:00:00 - - - - - - -
12.12.2018 11:00:00 - - - - - - -
12.12.2018 10:00:00 - - - - - - -
12.12.2018 09:00:00 - - - - - - -
12.12.2018 08:00:00 - - - - - - -
12.12.2018 07:00:00 - - - - - - -
12.12.2018 06:00:00 - - - - - - -
12.12.2018 05:00:00 - - - - - - -
12.12.2018 04:00:00 - - - - - - -
12.12.2018 03:00:00 - - - - - - -
12.12.2018 02:00:00 - - - - - - -
12.12.2018 01:00:00 - - - - - - -
12.12.2018 00:00:00 - - - - - - -
11.12.2018 23:00:00 - - - - - - -
11.12.2018 22:00:00 - - - - - - -
11.12.2018 21:00:00 - - - - - - -
11.12.2018 20:00:00 - - - - - - -
11.12.2018 19:00:00 - - - - - - -
11.12.2018 18:00:00 - - - - - - -
11.12.2018 17:00:00 - - - - - - -
11.12.2018 16:00:00 - - - - - - -
11.12.2018 15:00:00 - - - - - - -
11.12.2018 14:00:00 - - - - - - -
11.12.2018 13:00:00 - - - - - - -
11.12.2018 12:00:00 - - - - - - -
11.12.2018 11:00:00 - - - - - - -
11.12.2018 10:00:00 - - - - - - -
11.12.2018 09:00:00 - - - - - - -
11.12.2018 08:00:00 - - - - - - -
11.12.2018 07:00:00 - - - - - - -
11.12.2018 06:00:00 - - - - - - -
11.12.2018 05:00:00 - - - - - - -
11.12.2018 04:00:00 - - - - - - -
11.12.2018 03:00:00 - - - - - - -
11.12.2018 02:00:00 - - - - - - -
11.12.2018 01:00:00 - - - - - - -
11.12.2018 00:00:00 - - - - - - -
10.12.2018 23:00:00 - - - - - - -
10.12.2018 22:00:00 - - - - - - -
10.12.2018 21:00:00 - - - - - - -
10.12.2018 20:00:00 - - - - - - -
10.12.2018 19:00:00 - - - - - - -
10.12.2018 18:00:00 - - - - - - -
10.12.2018 17:00:00 - - - - - - -
10.12.2018 16:00:00 - - - - - - -
10.12.2018 15:00:00 - - - - - - -
10.12.2018 14:00:00 - - - - - - -
10.12.2018 13:00:00 - - - - - - -
10.12.2018 12:00:00 - - - - - - -
10.12.2018 11:00:00 - - - - - - -
10.12.2018 10:00:00 - - - - - - -
10.12.2018 09:00:00 - - - - - - -
10.12.2018 08:00:00 - - - - - - -
10.12.2018 07:00:00 - - - - - - -
10.12.2018 06:00:00 - - - - - - -
10.12.2018 05:00:00 6,9 -0,1 5,7 1009,8 - 0 0,0
10.12.2018 04:00:00 7,3 -0,3 6,0 1009,2 - 0 0,0
10.12.2018 03:00:00 7,3 1,9 5,4 1008,6 - 0 0,3
10.12.2018 02:00:00 6,6 0,9 5,5 1008,1 - 0 0,0
10.12.2018 01:00:00 7,2 1,2 5,9 1007,4 - 0 0,0
10.12.2018 00:00:00 7,7 0,4 5,2 1006,4 - 0 0,4
09.12.2018 23:00:00 6,7 2,3 5,0 1006,0 - 0 0,2
09.12.2018 22:00:00 7,0 2,5 5,6 1004,9 - 0 0,2
09.12.2018 21:00:00 7,4 1,5 6,5 1003,3 - 0 0,0
09.12.2018 20:00:00 7,7 2,1 6,7 1002,1 - 0 0,0
09.12.2018 19:00:00 8,2 1,9 7,3 1000,7 - 0 0,0
09.12.2018 18:00:00 8,4 3,0 7,7 999,0 - 0 0,0
09.12.2018 17:00:00 8,6 3,1 7,7 997,7 - 0 0,0
09.12.2018 16:00:00 8,7 2,8 7,7 996,2 17 6 0,0
09.12.2018 15:00:00 8,8 4,1 8,0 994,6 9 14 0,0
09.12.2018 14:00:00 9,0 4,5 7,9 993,3 9 0 0,0
09.12.2018 13:00:00 8,5 4,7 7,4 992,2 11 0 0,3
09.12.2018 12:00:00 8,6 5,5 7,5 990,9 10 6 0,9
09.12.2018 11:00:00 8,3 5,8 7,2 990,2 7 10 1,0
09.12.2018 10:00:00 8,6 5,3 7,4 989,2 - 0 0,1
09.12.2018 09:00:00 8,2 5,2 6,9 988,2 - 0 0,6
09.12.2018 08:00:00 7,5 4,2 6,2 987,2 - 0 0,6
09.12.2018 07:00:00 8,7 5,3 6,9 986,3 - 0 0,0
09.12.2018 06:00:00 9,1 5,0 7,0 985,9 - 0 0,7
09.12.2018 05:00:00 9,0 5,9 7,6 985,4 - 0 0,9
09.12.2018 04:00:00 8,6 5,8 7,5 984,9 23 0 0,0
09.12.2018 03:00:00 8,2 5,6 6,7 984,7 18 0 0,3
09.12.2018 02:00:00 7,9 5,9 7,1 984,7 6 0 0,2
09.12.2018 01:00:00 7,9 6,0 7,6 984,7 9 0 0,0
09.12.2018 00:00:00 7,9 6,3 7,2 985,1 8 0 0,0
08.12.2018 23:00:00 8,2 6,4 7,7 985,9 9 0 0,0
08.12.2018 22:00:00 8,6 6,0 7,8 986,9 7 0 0,0
08.12.2018 21:00:00 9,1 6,2 7,7 988,2 9 0 0,0
08.12.2018 20:00:00 9,3 6,0 7,8 989,1 8 0 0,5
08.12.2018 19:00:00 9,3 5,9 7,8 989,9 7 0 0,4
08.12.2018 18:00:00 9,3 6,3 8,3 990,3 6 0 0,0
08.12.2018 17:00:00 9,7 6,5 8,8 990,3 6 0 0,0
08.12.2018 16:00:00 9,4 6,7 8,6 990,1 7 0 0,0
08.12.2018 15:00:00 9,5 6,3 8,8 990,1 8 2 0,0
08.12.2018 14:00:00 9,7 6,6 9,3 990,2 6 0 0,0
08.12.2018 13:00:00 9,4 6,4 8,3 990,1 8 0 1,1
08.12.2018 12:00:00 9,2 7,3 8,4 990,5 3,3 3 0,6
08.12.2018 11:00:00 8,6 7,2 8,0 990,7 3,0 0 0,2

tt = temperatuur
td = dauwpunt
tt 5cm = temperatuur 5cm
ppp = luchtdruk
vv = zicht
sd = Zonneschijnduur
rr = neerslag

Weerstations in de omgeving